DW4174 Weather Reports


Display with metric or nautical units.
time (UTC)temp
F
wind
direction
speed
MPH
gust
MPH
rain 1hr
in
rain 24hr
in
rain mn
in
humidity
%
barometer
mb
20260504222105 79 302 7.0 12.0 0.00 0.00 0.00 36 1009.8
20260504221205 78 321 8.0 13.0 0.00 0.00 0.00 36 1010.0
20260504220304 79 311 6.0 14.0 0.00 0.00 0.00 36 1010.0
20260504215405 79 298 4.0 14.0 0.00 0.00 0.00 36 1009.9
20260504214505 78 259 4.0 7.0 0.00 0.00 0.00 37 1010.2
20260504212705 78 271 7.0 11.0 0.00 0.00 0.00 37 1010.6
20260504210006 78 307 8.0 14.0 0.00 0.00 0.00 38 1010.8
20260504205104 79 299 8.0 15.0 0.00 0.00 0.00 37 1010.9
20260504204204 80 271 7.0 15.0 0.00 0.00 0.00 36 1011.0
20260504203305 81 267 3.0 12.0 0.00 0.00 0.00 34 1010.8
20260504202404 80 194 4.0 9.0 0.00 0.00 0.00 36 1010.8
20260504201505 79 208 3.0 10.0 0.00 0.00 0.00 37 1010.7
20260504200604 80 195 5.0 7.0 0.00 0.00 0.00 36 1010.8
20260504195706 78 293 3.0 10.0 0.00 0.00 0.00 38 1010.9
20260504194804 78 306 4.0 8.0 0.00 0.00 0.00 39 1010.8
20260504193904 78 278 8.0 12.0 0.00 0.00 0.00 39 1010.8
20260504193005 78 296 8.0 13.0 0.00 0.00 0.00 39 1011.3
20260504192105 78 294 8.0 15.0 0.00 0.00 0.00 40 1011.3
20260504191204 79 276 6.0 15.0 0.00 0.00 0.00 39 1011.2
20260504185405 78 316 6.0 10.0 0.00 0.00 0.00 40 1010.8
20260504184504 77 304 6.0 11.0 0.00 0.00 0.00 40 1010.8
20260504183604 77 313 7.0 12.0 0.00 0.00 0.00 40 1010.9
20260504182704 77 305 9.0 14.0 0.00 0.00 0.00 41 1011.3
20260504181804 77 293 8.0 14.0 0.00 0.00 0.00 42 1011.7
20260504180904 77 293 7.0 13.0 0.00 0.00 0.00 42 1011.7
20260504175104 76 292 4.0 7.0 0.00 0.00 0.00 44 1010.9
20260504173304 75 281 5.0 9.0 0.00 0.00 0.00 43 1010.8
20260504172404 76 290 6.0 10.0 0.00 0.00 0.00 42 1010.8
20260504171504 76 273 4.0 13.0 0.00 0.00 0.00 41 1011.1
20260504170604 78 241 4.0 11.0 0.00 0.00 0.00 33 1011.1
20260504160304 76 192 6.0 11.0 0.00 0.00 0.00 33 1011.3